GW4394 Weather Reports


time (UTC)temp
C
wind
direction
speed
KPH
gust
KPH
rain 1hr
cm
rain 24hr
cm
rain mn
cm
humidity
%
barometer
mb
20260906172459 37 131 0.0 0.0 0.00 0.00 0.00 42 1014.8
20260906171954 37 17 0.0 4.8 0.00 0.00 0.00 43 1014.8
20260906171448 37 167 0.0 1.6 0.00 0.00 0.00 41 1014.9
20260906170944 36 179 0.0 1.6 0.00 0.00 0.00 44 1015.1
20260906170440 36 45 1.6 4.8 0.00 0.00 0.00 44 1015.0
20260906165937 37 69 0.0 0.0 0.00 0.00 0.00 42 1015.0
20260906165430 37 326 0.0 0.0 0.00 0.00 0.00 44 1015.1
20260906164925 38 161 0.0 1.6 0.00 0.00 0.00 43 1015.0
20260906164424 37 178 0.0 0.0 0.00 0.00 0.00 45 1015.2
20260906163921 37 167 0.0 0.0 0.00 0.00 0.00 43 1015.5
20260906163417 37 175 0.0 0.0 0.00 0.00 0.00 43 1015.2
20260906162914 37 167 1.6 4.8 0.00 0.00 0.00 43 1015.4
20260906162413 36 196 0.0 3.2 0.00 0.00 0.00 45 1015.4
20260906161908 36 151 0.0 0.0 0.00 0.00 0.00 47 1015.5
20260906161407 36 166 0.0 0.0 0.00 0.00 0.00 46 1015.3
20260906160907 36 159 0.0 3.2 0.00 0.00 0.00 45 1015.4
20260906160400 36 165 0.0 0.0 0.00 0.00 0.00 45 1015.5
20260906155859 37 180 0.0 6.4 0.00 0.00 0.00 46 1015.4
20260906155352 36 171 0.0 0.0 0.00 0.00 0.00 46 1015.5
20260906154849 36 164 0.0 0.0 0.00 0.00 0.00 47 1015.3
20260906154343 35 166 0.0 0.0 0.00 0.00 0.00 48 1015.2
20260906153842 35 168 0.0 0.0 0.00 0.00 0.00 47 1015.5
20260906153341 35 167 0.0 0.0 0.00 0.00 0.00 49 1015.2
20260906152837 35 209 0.0 0.0 0.00 0.00 0.00 49 1015.3
20260906152332 35 198 0.0 0.0 0.00 0.00 0.00 47 1015.2
20260906151831 35 168 0.0 0.0 0.00 0.00 0.00 50 1015.3
20260906151327 35 186 0.0 0.0 0.00 0.00 0.00 50 1015.3
20260906150822 33 128 0.0 0.0 0.00 0.00 0.00 53 1015.3
20260906150318 32 143 0.0 0.0 0.00 0.00 0.00 54 1015.1
20260906145817 34 168 0.0 0.0 0.00 0.00 0.00 53 1015.2
20260906145315 33 155 0.0 0.0 0.00 0.00 0.00 54 1015.0
20260906144811 32 165 0.0 0.0 0.00 0.00 0.00 55 1015.0
20260906144305 32 152 0.0 0.0 0.00 0.00 0.00 54 1015.1
20260906143805 32 162 0.0 0.0 0.00 0.00 0.00 56 1015.0
20260906143302 31 165 0.0 0.0 0.00 0.00 0.00 59 1015.1
20260906142801 30 162 0.0 0.0 0.00 0.00 0.00 61 1015.2
20260906142257 30 171 0.0 0.0 0.00 0.00 0.00 64 1015.2
20260906141755 28 187 0.0 0.0 0.00 0.00 0.00 65 1015.1
20260906141250 28 145 0.0 0.0 0.00 0.00 0.00 67 1015.3
20260906140749 28 173 0.0 0.0 0.00 0.00 0.00 68 1015.0
20260906140245 27 179 0.0 0.0 0.00 0.00 0.00 69 1015.2
20260906135742 27 160 0.0 0.0 0.00 0.00 0.00 71 1015.1
20260906135238 27 149 0.0 0.0 0.00 0.00 0.00 71 1015.2
20260906134733 27 182 0.0 0.0 0.00 0.00 0.00 73 1015.1
20260906134228 26 168 0.0 0.0 0.00 0.00 0.00 75 1015.1
20260906133724 26 178 0.0 0.0 0.00 0.00 0.00 78 1015.2
20260906133219 26 171 0.0 0.0 0.00 0.00 0.00 79 1015.1
20260906132714 25 182 0.0 0.0 0.00 0.00 0.00 80 1014.9
20260906132210 25 169 0.0 0.0 0.00 0.00 0.00 83 1015.1
20260906131705 25 178 0.0 0.0 0.00 0.00 0.00 83 1015.0
20260906131200 24 157 0.0 0.0 0.00 0.00 0.00 86 1014.9
20260906130655 23 158 0.0 0.0 0.00 0.00 0.00 88 1014.8
20260906130151 23 158 0.0 0.0 0.00 0.00 0.00 88 1014.8
20260906125648 23 158 0.0 0.0 0.00 0.00 0.00 89 1014.7
20260906125147 23 158 0.0 0.0 0.00 0.00 0.00 90 1014.8
20260906124643 23 158 0.0 0.0 0.00 0.00 0.00 91 1014.6
20260906124138 22 158 0.0 0.0 0.00 0.00 0.00 91 1014.7
20260906123637 22 172 0.0 0.0 0.00 0.00 0.00 92 1014.4
20260906123132 22 172 0.0 0.0 0.00 0.00 0.00 92 1014.5
20260906122632 22 172 0.0 0.0 0.00 0.00 0.00 92 1014.5
20260906122127 22 172 0.0 0.0 0.00 0.00 0.00 93 1014.4
20260906121623 21 172 0.0 0.0 0.00 0.00 0.00 93 1014.4
20260906121120 21 172 0.0 0.0 0.00 0.00 0.00 93 1014.3
20260906120615 21 172 0.0 0.0 0.00 0.00 0.00 93 1014.3
20260906120112 21 171 0.0 0.0 0.00 0.00 0.00 92 1014.2
20260906115606 21 175 0.0 0.0 0.00 0.00 0.00 92 1014.2
20260906115102 21 174 0.0 0.0 0.00 0.00 0.00 93 1013.7
20260906114555 21 174 0.0 0.0 0.00 0.00 0.00 93 1014.0
20260906114051 21 174 0.0 0.0 0.00 0.00 0.00 93 1013.9
20260906113550 21 174 0.0 0.0 0.00 0.00 0.00 92 1013.7
20260906113045 21 174 0.0 0.0 0.00 0.00 0.00 92 1013.9
20260906112540 21 174 0.0 0.0 0.00 0.00 0.00 92 1013.9
20260906112037 22 174 0.0 0.0 0.00 0.00 0.00 92 1014.2
20260906111536 22 174 0.0 0.0 0.00 0.00 0.00 92 1013.9
20260906111032 22 174 0.0 0.0 0.00 0.00 0.00 92 1013.8
20260906110531 22 174 0.0 0.0 0.00 0.00 0.00 92 1013.8
20260906110030 22 174 0.0 0.0 0.00 0.00 0.00 91 1013.7
20260906105526 22 174 0.0 0.0 0.00 0.00 0.00 91 1013.8
20260906105022 22 174 0.0 0.0 0.00 0.00 0.00 91 1013.9
20260906104520 22 174 0.0 0.0 0.00 0.00 0.00 90 1013.8
20260906104015 22 174 0.0 0.0 0.00 0.00 0.00 91 1013.8
20260906103513 22 174 0.0 0.0 0.00 0.00 0.00 91 1013.7
20260906103009 22 174 0.0 0.0 0.00 0.00 0.00 92 1013.9
20260906102509 22 174 0.0 0.0 0.00 0.00 0.00 91 1013.9
20260906102008 22 174 0.0 0.0 0.00 0.00 0.00 91 1013.8
20260906101503 22 174 0.0 0.0 0.00 0.00 0.00 91 1013.8
20260906100959 22 174 0.0 0.0 0.00 0.00 0.00 91 1013.9
20260906100454 22 174 0.0 0.0 0.00 0.00 0.00 90 1013.7
20260906095954 22 174 0.0 0.0 0.00 0.00 0.00 90 1013.4
20260906095449 22 174 0.0 0.0 0.00 0.00 0.00 90 1013.8
20260906094944 22 174 0.0 0.0 0.00 0.00 0.00 90 1013.6
20260906094443 22 174 0.0 0.0 0.00 0.00 0.00 90 1013.7
20260906093939 22 174 0.0 0.0 0.00 0.00 0.00 89 1013.8
20260906093436 22 174 0.0 0.0 0.00 0.00 0.00 88 1013.6
20260906092936 22 174 0.0 0.0 0.00 0.00 0.00 87 1013.6
20260906092435 22 174 0.0 0.0 0.00 0.00 0.00 87 1013.7
20260906091931 22 174 0.0 0.0 0.00 0.00 0.00 86 1013.7
20260906091426 22 174 0.0 0.0 0.00 0.00 0.00 86 1013.6
20260906090923 22 174 0.0 0.0 0.00 0.00 0.00 86 1013.7
20260906090418 22 174 0.0 0.0 0.00 0.00 0.00 86 1013.7
20260906085912 22 174 0.0 0.0 0.00 0.00 0.00 85 1013.4
20260906085411 22 174 0.0 0.0 0.00 0.00 0.00 84 1013.4
20260906084906 23 174 0.0 0.0 0.00 0.00 0.00 84 1013.3
20260906084401 23 174 0.0 0.0 0.00 0.00 0.00 84 1013.3
20260906083854 23 174 0.0 0.0 0.00 0.00 0.00 84 1013.4
20260906083350 23 174 0.0 0.0 0.00 0.00 0.00 84 1013.4
20260906082849 23 174 0.0 0.0 0.00 0.00 0.00 84 1013.6
20260906082345 23 174 0.0 0.0 0.00 0.00 0.00 84 1013.3
20260906081841 23 174 0.0 0.0 0.00 0.00 0.00 84 1013.7
20260906081336 23 174 0.0 0.0 0.00 0.00 0.00 83 1013.6
20260906080832 23 174 0.0 0.0 0.00 0.00 0.00 82 1013.6
20260906080328 23 174 0.0 0.0 0.00 0.00 0.00 82 1013.6
20260906075827 23 174 0.0 0.0 0.00 0.00 0.00 82 1013.6
20260906075327 23 174 0.0 0.0 0.00 0.00 0.00 81 1013.6
20260906074823 23 175 0.0 0.0 0.00 0.00 0.00 80 1013.3
20260906074322 24 175 0.0 0.0 0.00 0.00 0.00 79 1013.3
20260906073822 24 175 0.0 0.0 0.00 0.00 0.00 79 1013.4
20260906073321 24 175 0.0 0.0 0.00 0.00 0.00 79 1013.3
20260906072818 24 175 0.0 0.0 0.00 0.00 0.00 78 1013.6
20260906072313 24 175 0.0 0.0 0.00 0.00 0.00 78 1013.4
20260906071809 24 175 0.0 0.0 0.00 0.00 0.00 78 1013.6
20260906071304 24 175 0.0 0.0 0.00 0.00 0.00 78 1013.6
20260906070801 24 175 0.0 0.0 0.00 0.00 0.00 77 1013.6
20260906070256 25 175 0.0 0.0 0.00 0.00 0.00 77 1013.7
20260906065755 25 175 0.0 0.0 0.00 0.00 0.00 77 1013.6
20260906065251 25 175 0.0 0.0 0.00 0.00 0.00 77 1013.8
20260906064747 25 175 0.0 0.0 0.00 0.00 0.00 76 1013.8
20260906064242 25 174 0.0 0.0 0.00 0.00 0.00 76 1013.7
20260906063737 25 174 0.0 0.0 0.00 0.00 0.00 76 1013.9
20260906063233 25 175 0.0 0.0 0.00 0.00 0.00 75 1013.9
20260906062728 25 175 0.0 0.0 0.00 0.00 0.00 75 1014.0
20260906062227 25 174 0.0 0.0 0.00 0.00 0.00 74 1013.9
20260906061723 25 174 0.0 0.0 0.00 0.00 0.00 73 1013.9
20260906061219 26 174 0.0 0.0 0.00 0.00 0.00 72 1013.8
20260906060714 26 191 0.0 0.0 0.00 0.00 0.00 71 1013.7
20260906060212 26 194 0.0 0.0 0.00 0.00 0.00 70 1013.8
20260906055707 26 174 0.0 0.0 0.00 0.00 0.00 69 1013.8
20260906055202 26 178 0.0 0.0 0.00 0.00 0.00 70 1013.8
20260906054657 26 178 0.0 0.0 0.00 0.00 0.00 70 1013.9
20260906054158 26 178 0.0 0.0 0.00 0.00 0.00 70 1013.8
20260906053654 26 179 0.0 0.0 0.00 0.00 0.00 71 1013.8
20260906053149 26 170 0.0 0.0 0.00 0.00 0.00 71 1013.8
20260906052645 26 170 0.0 0.0 0.00 0.00 0.00 71 1013.8
20260906052141 26 170 0.0 0.0 0.00 0.00 0.00 71 1013.4
20260906051637 26 170 0.0 0.0 0.00 0.00 0.00 70 1013.6
20260906051131 26 170 0.0 0.0 0.00 0.00 0.00 70 1013.4
20260906050627 26 170 0.0 0.0 0.00 0.00 0.00 69 1013.7
20260906050122 26 170 0.0 0.0 0.00 0.00 0.00 68 1013.4
20260906045620 26 170 0.0 0.0 0.00 0.00 0.00 68 1013.6
20260906045116 26 170 0.0 0.0 0.00 0.00 0.00 69 1013.4
20260906044612 26 170 0.0 0.0 0.00 0.00 0.00 69 1013.7
20260906044107 26 170 0.0 0.0 0.00 0.00 0.00 69 1013.4
20260906043603 27 170 0.0 0.0 0.00 0.00 0.00 68 1013.4
20260906043058 27 170 0.0 0.0 0.00 0.00 0.00 68 1013.7
20260906042557 27 170 0.0 0.0 0.00 0.00 0.00 68 1013.8
20260906042051 27 170 0.0 0.0 0.00 0.00 0.00 69 1013.8
20260906041548 26 170 0.0 0.0 0.00 0.00 0.00 69 1013.7
20260906041042 26 170 0.0 0.0 0.00 0.00 0.00 70 1013.7
20260906040538 26 170 0.0 0.0 0.00 0.00 0.00 70 1013.8
20260906040033 26 170 0.0 0.0 0.00 0.00 0.00 70 1013.4
20260906035528 27 170 0.0 0.0 0.00 0.00 0.00 70 1013.6
20260906035024 27 170 0.0 0.0 0.00 0.00 0.00 70 1013.6
20260906034518 27 170 0.0 0.0 0.00 0.00 0.00 69 1013.8
20260906034013 27 170 0.0 0.0 0.00 0.00 0.00 68 1013.4
20260906033508 27 170 0.0 0.0 0.00 0.00 0.00 69 1013.8
20260906033004 27 170 0.0 0.0 0.00 0.00 0.00 69 1013.8
20260906032500 27 170 0.0 0.0 0.00 0.00 0.00 69 1013.6
20260906032000 27 170 0.0 0.0 0.00 0.00 0.00 68 1013.6
20260906031456 27 170 0.0 0.0 0.00 0.00 0.00 67 1013.7
20260906030951 28 170 0.0 0.0 0.00 0.00 0.00 66 1013.6
20260906030445 28 170 0.0 0.0 0.00 0.00 0.00 66 1013.3
20260906025939 28 170 0.0 0.0 0.00 0.00 0.00 65 1013.3
20260906025433 28 169 0.0 0.0 0.00 0.00 0.00 64 1013.6
20260906024932 28 191 0.0 0.0 0.00 0.00 0.00 64 1013.3
20260906024427 28 173 0.0 0.0 0.00 0.00 0.00 63 1013.1
20260906023922 29 178 0.0 0.0 0.00 0.00 0.00 62 1013.2
20260906023418 29 168 0.0 0.0 0.00 0.00 0.00 61 1013.3
20260906022918 29 188 0.0 0.0 0.00 0.00 0.00 61 1013.1
20260906022413 29 171 0.0 0.0 0.00 0.00 0.00 61 1013.1
20260906021908 30 168 0.0 0.0 0.00 0.00 0.00 60 1012.9
20260906021408 30 138 0.0 0.0 0.00 0.00 0.00 60 1013.0
20260906020903 30 182 0.0 0.0 0.00 0.00 0.00 59 1012.9
20260906020403 30 170 0.0 0.0 0.00 0.00 0.00 59 1012.8
20260906015857 30 170 0.0 0.0 0.00 0.00 0.00 58 1012.7
20260906015356 30 170 0.0 0.0 0.00 0.00 0.00 57 1012.7
20260906014850 30 182 0.0 0.0 0.00 0.00 0.00 57 1012.5
20260906014345 31 185 0.0 1.6 0.00 0.00 0.00 56 1012.7
20260906013842 31 170 0.0 0.0 0.00 0.00 0.00 56 1012.4
20260906013337 31 166 0.0 0.0 0.00 0.00 0.00 55 1012.6
20260906012832 31 177 0.0 0.0 0.00 0.00 0.00 54 1012.7
20260906012327 31 185 0.0 0.0 0.00 0.00 0.00 53 1012.5
20260906011826 31 199 0.0 0.0 0.00 0.00 0.00 53 1012.4
20260906011321 31 174 0.0 0.0 0.00 0.00 0.00 53 1012.5
20260906010817 31 187 0.0 0.0 0.00 0.00 0.00 55 1012.3
20260906010313 31 187 0.0 0.0 0.00 0.00 0.00 54 1012.3
20260906005808 31 187 0.0 0.0 0.00 0.00 0.00 53 1012.2
20260906005307 32 187 0.0 0.0 0.00 0.00 0.00 53 1012.2
20260906004807 32 187 0.0 0.0 0.00 0.00 0.00 51 1012.2
20260906004306 32 187 0.0 0.0 0.00 0.00 0.00 50 1012.3
20260906003801 33 187 0.0 0.0 0.00 0.00 0.00 50 1012.3
20260906003257 33 186 0.0 0.0 0.00 0.00 0.00 48 1012.3
20260906002753 33 173 0.0 0.0 0.00 0.00 0.00 48 1012.2
20260906002246 33 168 0.0 0.0 0.00 0.00 0.00 47 1012.2
20260906001742 33 171 0.0 0.0 0.00 0.00 0.00 46 1012.2
20260906001237 33 344 3.2 6.4 0.00 0.00 0.00 45 1012.3
20260906000732 33 172 0.0 0.0 0.00 0.00 0.00 44 1012.3
20260906000226 34 172 0.0 0.0 0.00 0.00 0.00 43 1012.2
20260905235721 35 172 0.0 0.0 0.00 0.00 0.00 41 1012.2
20260905235216 35 172 0.0 0.0 0.00 0.00 0.00 41 1012.2
20260905234712 35 174 0.0 0.0 0.00 0.00 0.00 40 1012.2
20260905234207 35 180 0.0 0.0 0.00 0.00 0.00 39 1012.1
20260905233702 35 171 0.0 0.0 0.00 0.00 0.00 38 1012.3
20260905233201 36 169 0.0 0.0 0.00 0.00 0.00 38 1012.0
20260905232656 36 176 0.0 1.6 0.00 0.00 0.00 36 1012.2
20260905232151 36 193 0.0 0.0 0.00 0.00 0.00 36 1012.1
20260905231646 36 176 0.0 0.0 0.00 0.00 0.00 36 1012.2
20260905231143 36 151 0.0 0.0 0.00 0.00 0.00 37 1012.1
20260905230638 36 148 0.0 0.0 0.00 0.00 0.00 36 1012.1
20260905230136 36 201 0.0 0.0 0.00 0.00 0.00 36 1012.0
20260905225636 36 148 0.0 0.0 0.00 0.00 0.00 36 1012.1
20260905225131 36 156 0.0 0.0 0.00 0.00 0.00 36 1012.0
20260905224630 36 172 0.0 0.0 0.00 0.00 0.00 36 1011.8
20260905224125 37 195 0.0 0.0 0.00 0.00 0.00 36 1011.9
20260905223622 37 160 0.0 0.0 0.00 0.00 0.00 36 1012.0
20260905223118 37 173 0.0 0.0 0.00 0.00 0.00 36 1012.1
20260905222618 37 168 0.0 0.0 0.00 0.00 0.00 36 1012.0
20260905222113 36 148 0.0 0.0 0.00 0.00 0.00 37 1012.0
20260905221609 37 186 0.0 0.0 0.00 0.00 0.00 36 1012.1
20260905221105 37 191 0.0 0.0 0.00 0.00 0.00 36 1012.1
20260905220600 37 157 0.0 0.0 0.00 0.00 0.00 37 1012.2
20260905220057 38 136 0.0 1.6 0.00 0.00 0.00 36 1012.2
20260905215556 38 189 0.0 0.0 0.00 0.00 0.00 35 1012.1
20260905215052 38 169 0.0 0.0 0.00 0.00 0.00 36 1012.1
20260905214548 37 186 0.0 0.0 0.00 0.00 0.00 35 1012.3
20260905214042 37 153 0.0 0.0 0.00 0.00 0.00 36 1012.2
20260905213537 38 117 0.0 1.6 0.00 0.00 0.00 36 1012.3
20260905213033 38 225 0.0 1.6 0.00 0.00 0.00 36 1012.3
20260905212528 38 108 0.0 0.0 0.00 0.00 0.00 36 1012.5
20260905212027 38 181 0.0 0.0 0.00 0.00 0.00 37 1012.3
20260905211523 38 186 0.0 0.0 0.00 0.00 0.00 36 1012.5
20260905211019 38 194 0.0 1.6 0.00 0.00 0.00 36 1012.5
20260905210514 39 175 0.0 0.0 0.00 0.00 0.00 36 1012.7
20260905210014 40 227 0.0 0.0 0.00 0.00 0.00 34 1012.9
20260905205508 38 212 0.0 0.0 0.00 0.00 0.00 37 1012.7
20260905205007 39 168 0.0 3.2 0.00 0.00 0.00 35 1012.9
20260905204502 39 179 0.0 0.0 0.00 0.00 0.00 35 1013.0
20260905204002 39 218 0.0 0.0 0.00 0.00 0.00 35 1012.9
20260905203457 40 202 0.0 0.0 0.00 0.00 0.00 34 1013.0
20260905202953 40 189 0.0 0.0 0.00 0.00 0.00 34 1013.2
20260905202448 38 193 0.0 0.0 0.00 0.00 0.00 36 1013.2
20260905201943 39 141 1.6 4.8 0.00 0.00 0.00 34 1013.2
20260905201438 39 170 0.0 3.2 0.00 0.00 0.00 35 1013.1
20260905200932 39 158 0.0 0.0 0.00 0.00 0.00 36 1013.2
20260905200429 38 207 0.0 0.0 0.00 0.00 0.00 37 1013.6
20260905195926 38 155 0.0 1.6 0.00 0.00 0.00 38 1013.7
20260905195422 38 155 0.0 3.2 0.00 0.00 0.00 37 1013.7
20260905194918 39 157 0.0 4.8 0.00 0.00 0.00 36 1013.7
20260905194412 38 147 0.0 1.6 0.00 0.00 0.00 37 1013.8
20260905193911 38 175 0.0 3.2 0.00 0.00 0.00 38 1013.7
20260905193412 38 171 0.0 0.0 0.00 0.00 0.00 38 1013.9
20260905192907 38 170 0.0 1.6 0.00 0.00 0.00 38 1014.1
20260905192402 37 182 0.0 4.8 0.00 0.00 0.00 40 1013.8
20260905191857 38 359 1.6 3.2 0.00 0.00 0.00 38 1013.9
20260905191356 38 185 0.0 0.0 0.00 0.00 0.00 40 1014.0
20260905190855 36 205 0.0 0.0 0.00 0.00 0.00 42 1013.9
20260905190348 36 131 0.0 11.3 0.00 0.00 0.00 42 1014.2
20260905185847 38 147 0.0 1.6 0.00 0.00 0.00 41 1014.2
20260905185342 38 118 0.0 0.0 0.00 0.00 0.00 39 1014.5
20260905184836 38 184 1.6 4.8 0.00 0.00 0.00 39 1014.6
20260905184336 37 179 0.0 1.6 0.00 0.00 0.00 40 1014.6
20260905183834 37 175 0.0 4.8 0.00 0.00 0.00 43 1014.7
20260905183330 37 111 1.6 6.4 0.00 0.00 0.00 42 1014.5
20260905182830 38 162 0.0 1.6 0.00 0.00 0.00 39 1014.6
20260905182329 38 187 0.0 0.0 0.00 0.00 0.00 41 1014.8
20260905181825 36 179 0.0 0.0 0.00 0.00 0.00 41 1014.8
20260905181324 35 18 0.0 1.6 0.00 0.00 0.00 42 1014.8
20260905180823 35 62 0.0 0.0 0.00 0.00 0.00 43 1014.9
20260905180319 37 50 1.6 6.4 0.00 0.00 0.00 41 1014.8
20260905175813 37 51 1.6 6.4 0.00 0.00 0.00 42 1014.8
20260905175308 37 181 0.0 0.0 0.00 0.00 0.00 41 1014.9
20260905174803 37 190 1.6 4.8 0.00 0.00 0.00 40 1015.0
20260905174259 36 188 0.0 1.6 0.00 0.00 0.00 43 1015.2
20260905173755 36 121 0.0 1.6 0.00 0.00 0.00 44 1015.2
20260905173250 36 189 0.0 0.0 0.00 0.00 0.00 45 1015.3
20260905172750 36 187 0.0 3.2 0.00 0.00 0.00 46 1015.3